Guymon, OK

8:35 AM CDT on March 25, 2017 (GMT -0500)
Guymon Municipal

Weather History for KGUY - September, 2013

Change the Weather History Date:

Tuesday, September 17, 2013

  Actual Average Record
Temperature  
Mean Temperature 74 °F 70 °F  
Max Temperature 86 °F 85 °F 102 °F (2004)
Min Temperature 62 °F 55 °F 46 °F (2006)
Degree Days  
Heating Degree Days 0 1  
Month to date heating degree days 0 7  
Since 1 July heating degree days 0 8  
Cooling Degree Days 9 6  
Month to date cooling degree days 202 148  
Year to date cooling degree days 1753 1397  
Growing Degree Days 23 (Base 50)    
Moisture  
Dew Point 62 °F    
Average Humidity 69    
Maximum Humidity 93    
Minimum Humidity 44    
Precipitation  
Precipitation 0.00 in 0.06 in 0.45 in (2001)
Month to date precipitation 2.10 1.05  
Year to date precipitation 12.65 15.82  
Snow  
Snow 0.00 in - - ()
Month to date snowfall 0.0  
Since 1 July snowfall 0.0  
Since 1 September snowfall 0.0  
Snow Depth 0.00 in    
Sea Level Pressure  
Sea Level Pressure 29.92 in    
Wind  
Wind Speed 13 mph (South)    
Max Wind Speed 28 mph    
Max Gust Speed 35 mph    
Visibility 10 miles    
Events      
T = Trace of Precipitation, MM = Missing Value Source: NWS Daily Summary

Daily Weather History Graph

Daily Weather History Graph

Search for Another Location

Airport or City:

Trip Planner

Search our weather history database for the weather conditions in past years. The results will help you decide how hot, cold, wet, or windy it might be!

Date:

Astronomy

Sep. 17, 2013 Rise Set
Actual Time 7:30 AM CDT 7:50 PM CDT
Civil Twilight 7:04 AM CDT 8:15 PM CDT
Nautical Twilight 6:33 AM CDT 8:46 PM CDT
Astronomical Twilight 6:02 AM CDT 9:17 PM CDT
Moon 6:37 PM CDT (9/17) 5:29 AM CDT (9/17)
Length of Visible Light 13h 11m
Length of Day
12h 19m
Waxing Gibbous, 96% of the Moon is Illuminated
Sep 17
Waxing Gibbous
Sep 19
Full
Sep 26
Last Quarter
Oct 4
New
Oct 11
First Quarter

Hourly Weather History & Observations

Time (CDT) Temp. Heat Index Dew Point Humidity Pressure Visibility Wind Dir Wind Speed Gust Speed Precip Events Conditions
12:53 AM 66.0 °F - 63.0 °F 90% 30.06 in 10.0 mi South 8.1 mph - N/A   Mostly Cloudy
1:09 AM 64.4 °F - 62.6 °F 94% 30.15 in 10.0 mi South 8.1 mph - N/A   Scattered Clouds
1:53 AM 64.0 °F - 62.1 °F 93% 30.05 in 10.0 mi South 4.6 mph - N/A   Clear
2:53 AM 64.0 °F - 62.1 °F 93% 30.03 in 10.0 mi SSW 6.9 mph - N/A   Clear
3:53 AM 64.0 °F - 62.1 °F 93% 30.01 in 10.0 mi SSW 6.9 mph - N/A   Clear
4:53 AM 63.0 °F - 61.0 °F 93% 30.01 in 10.0 mi South 4.6 mph - N/A   Clear
5:53 AM 63.0 °F - 61.0 °F 93% 30.00 in 10.0 mi SSW 6.9 mph - N/A   Partly Cloudy
6:53 AM 63.0 °F - 60.1 °F 90% 30.00 in 10.0 mi SSW 8.1 mph - N/A   Clear
7:53 AM 62.1 °F - 60.1 °F 93% 30.01 in 10.0 mi South 9.2 mph - N/A   Clear
8:53 AM 66.0 °F - 62.1 °F 87% 29.99 in 10.0 mi South 13.8 mph - N/A   Clear
9:53 AM 70.0 °F - 63.0 °F 78% 29.98 in 10.0 mi SSW 12.7 mph - N/A   Clear
10:53 AM 75.0 °F - 64.0 °F 69% 29.96 in 10.0 mi SW 15.0 mph 24.2 mph N/A   Clear
11:53 AM 79.0 °F - 64.0 °F 60% 29.93 in 10.0 mi SSW 16.1 mph 23.0 mph N/A   Clear
12:53 PM 81.0 °F 82.5 °F 64.0 °F 56% 29.90 in 10.0 mi SSW 23.0 mph 31.1 mph N/A   Clear
1:53 PM 82.9 °F 84.4 °F 64.0 °F 53% 29.88 in 10.0 mi SSW 16.1 mph 26.5 mph N/A   Clear
2:53 PM 84.0 °F 84.5 °F 62.1 °F 47% 29.85 in 10.0 mi SSW 17.3 mph 27.6 mph N/A   Scattered Clouds
3:53 PM 84.9 °F 84.8 °F 60.1 °F 43% 29.81 in 10.0 mi SSW 18.4 mph 31.1 mph N/A   Clear
4:53 PM 84.9 °F 85.0 °F 61.0 °F 44% 29.80 in 10.0 mi South 18.4 mph 29.9 mph N/A   Clear
5:53 PM 84.9 °F 84.8 °F 60.1 °F 43% 29.78 in 10.0 mi South 20.7 mph 28.8 mph N/A   Clear
6:53 PM 81.0 °F 81.9 °F 62.1 °F 52% 29.80 in 10.0 mi South 19.6 mph 31.1 mph N/A   Clear
7:53 PM 77.0 °F - 63.0 °F 62% 29.80 in 10.0 mi South 13.8 mph - N/A   Clear
8:53 PM 73.0 °F - 62.1 °F 68% 29.82 in 10.0 mi South 13.8 mph 21.9 mph N/A   Clear
9:53 PM 72.0 °F - 62.1 °F 71% 29.83 in 10.0 mi South 12.7 mph - N/A   Clear
10:53 PM 71.1 °F - 63.0 °F 75% 29.83 in 10.0 mi South 11.5 mph - N/A   Clear
11:53 PM 70.0 °F - 64.0 °F 81% 29.83 in 10.0 mi South 13.8 mph - N/A   Clear